Time,TemperatureF,DewpointF,PressureIn,WindDirection,WindDirectionDegrees,WindSpeedMPH,WindSpeedGustMPH,Humidity,HourlyPrecipIn,Conditions,Clouds,dailyrainin,SoftwareType,DateUTC
2013-01-24 00:00:00,11.2,-3.8,30.11,NNW,340,10.0,10.0,50,0.00,,,0.00,LWC V2.10 B1702,2013-01-24 05:00:00,
2013-01-24 00:05:00,11.2,-3.8,30.11,NNW,346,6.0,9.0,50,0.00,,,0.00,LWC V2.10 B1702,2013-01-24 05:05:00,
2013-01-24 00:10:00,11.2,-3.8,30.11,West,270,6.0,7.0,50,0.00,,,0.00,LWC V2.10 B1702,2013-01-24 05:10:00,
2013-01-24 00:15:00,11.3,-3.3,30.11,WSW,247,8.0,14.0,51,0.00,,,0.00,LWC V2.10 B1702,2013-01-24 05:15:00,
2013-01-24 00:20:00,11.2,-3.8,30.11,NE,44,2.0,7.0,50,0.00,,,0.00,LWC V2.10 B1702,2013-01-24 05:20:00,
2013-01-24 00:25:00,11.2,-3.0,30.11,WNW,284,2.0,7.0,52,0.00,,,0.00,LWC V2.10 B1702,2013-01-24 05:25:00,
2013-01-24 00:30:00,11.2,-3.0,30.11,NW,319,1.0,9.0,52,0.00,,,0.00,LWC V2.10 B1702,2013-01-24 05:30:00,
2013-01-24 00:35:00,11.2,-3.0,30.11,North,0,4.0,5.0,52,0.00,,,0.00,LWC V2.10 B1702,2013-01-24 05:35:00,
2013-01-24 00:40:00,11.1,-3.0,30.11,NW,319,8.0,9.0,52,0.00,,,0.00,LWC V2.10 B1702,2013-01-24 05:40:00,
2013-01-24 00:45:00,11.1,-3.5,30.11,WNW,296,7.0,10.0,51,0.00,,,0.00,LWC V2.10 B1702,2013-01-24 05:45:00,
2013-01-24 00:50:00,11.1,-3.5,30.11,North,355,4.0,10.0,51,0.00,,,0.00,LWC V2.10 B1702,2013-01-24 05:50:00,
2013-01-24 00:55:00,11.1,-2.6,30.11,North,9,7.0,9.0,53,0.00,,,0.00,LWC V2.10 B1702,2013-01-24 05:55:00,
2013-01-24 01:00:00,11.1,-3.0,30.10,North,0,5.0,8.0,52,0.00,,,0.00,LWC V2.10 B1702,2013-01-24 06:00:00,
2013-01-24 01:05:00,11.0,-2.7,30.10,NNW,328,2.0,8.0,53,0.00,,,0.00,LWC V2.10 B1702,2013-01-24 06:05:00,
2013-01-24 01:10:00,11.0,-2.3,30.10,WNW,298,10.0,10.0,54,0.00,,,0.00,LWC V2.10 B1702,2013-01-24 06:10:00,
2013-01-24 01:15:00,11.0,-2.0,30.11,NW,321,8.0,12.0,55,0.00,,,0.00,LWC V2.10 B1702,2013-01-24 06:15:00,
2013-01-24 01:20:00,11.0,-2.7,30.10,NNW,336,4.0,7.0,53,0.00,,,0.00,LWC V2.10 B1702,2013-01-24 06:20:00,
2013-01-24 01:25:00,10.9,-2.4,30.10,NW,326,6.0,11.0,54,0.00,,,0.00,LWC V2.10 B1702,2013-01-24 06:25:00,
2013-01-24 01:30:00,10.9,-1.7,30.10,WNW,285,1.0,7.0,56,0.00,,,0.00,LWC V2.10 B1702,2013-01-24 06:30:00,
2013-01-24 01:35:00,10.8,-2.2,30.11,WNW,292,4.0,9.0,55,0.00,,,0.00,LWC V2.10 B1702,2013-01-24 06:35:00,
2013-01-24 01:40:00,10.8,-1.8,30.11,WNW,303,5.0,10.0,56,0.00,,,0.00,LWC V2.10 B1702,2013-01-24 06:40:00,
2013-01-24 01:45:00,10.8,-2.2,30.11,NNW,329,5.0,5.0,55,0.00,,,0.00,LWC V2.10 B1702,2013-01-24 06:45:00,
2013-01-24 01:50:00,10.7,-2.2,30.11,West,277,1.0,8.0,55,0.00,,,0.00,LWC V2.10 B1702,2013-01-24 06:50:00,
2013-01-24 01:55:00,10.7,-2.6,30.11,NNW,340,0.0,6.0,54,0.00,,,0.00,LWC V2.10 B1702,2013-01-24 06:55:00,
2013-01-24 02:00:00,10.7,-1.9,30.11,NNW,346,9.0,13.0,56,0.00,,,0.00,LWC V2.10 B1702,2013-01-24 07:00:00,
2013-01-24 02:05:00,10.7,-2.2,30.11,North,355,3.0,6.0,55,0.00,,,0.00,LWC V2.10 B1702,2013-01-24 07:05:00,
2013-01-24 02:10:00,10.7,-2.2,30.11,WNW,294,5.0,8.0,55,0.00,,,0.00,LWC V2.10 B1702,2013-01-24 07:10:00,
2013-01-24 02:15:00,10.7,-2.2,30.11,NW,321,2.0,5.0,55,0.00,,,0.00,LWC V2.10 B1702,2013-01-24 07:15:00,
2013-01-24 02:20:00,10.6,-2.7,30.11,NW,325,7.0,10.0,54,0.00,,,0.00,LWC V2.10 B1702,2013-01-24 07:20:00,
2013-01-24 02:25:00,10.6,-2.3,30.11,NNW,346,5.0,9.0,55,0.00,,,0.00,LWC V2.10 B1702,2013-01-24 07:25:00,
2013-01-24 02:30:00,10.5,-1.7,30.11,North,5,3.0,7.0,57,0.00,,,0.00,LWC V2.10 B1702,2013-01-24 07:30:00,
2013-01-24 02:35:00,10.6,-2.0,30.11,North,355,8.0,8.0,56,0.00,,,0.00,LWC V2.10 B1702,2013-01-24 07:35:00,
2013-01-24 02:40:00,10.6,-2.0,30.10,NW,314,6.0,13.0,56,0.00,,,0.00,LWC V2.10 B1702,2013-01-24 07:40:00,
2013-01-24 02:45:00,10.5,-2.8,30.10,WNW,288,5.0,10.0,54,0.00,,,0.00,LWC V2.10 B1702,2013-01-24 07:45:00,
2013-01-24 02:50:00,10.5,-2.8,30.10,NNW,343,3.0,8.0,54,0.00,,,0.00,LWC V2.10 B1702,2013-01-24 07:50:00,
2013-01-24 02:55:00,10.5,-1.7,30.10,NNW,334,5.0,5.0,57,0.00,,,0.00,LWC V2.10 B1702,2013-01-24 07:55:00,
2013-01-24 03:00:00,10.5,-1.7,30.10,WNW,290,2.0,8.0,57,0.00,,,0.00,LWC V2.10 B1702,2013-01-24 08:00:00,
2013-01-24 03:05:00,10.5,-1.7,30.10,NNW,333,2.0,7.0,57,0.00,,,0.00,LWC V2.10 B1702,2013-01-24 08:05:00,
2013-01-24 03:10:00,10.5,-1.7,30.10,NNE,16,6.0,8.0,57,0.00,,,0.00,LWC V2.10 B1702,2013-01-24 08:10:00,
2013-01-24 03:15:00,10.4,-2.2,30.10,NNW,341,6.0,11.0,56,0.00,,,0.00,LWC V2.10 B1702,2013-01-24 08:15:00,
2013-01-24 03:20:00,10.3,-2.6,30.10,WNW,288,6.0,10.0,55,0.00,,,0.00,LWC V2.10 B1702,2013-01-24 08:20:00,
2013-01-24 03:25:00,10.4,-2.2,30.09,NNW,343,6.0,9.0,56,0.00,,,0.00,LWC V2.10 B1702,2013-01-24 08:25:00,
2013-01-24 03:30:00,10.3,-2.6,30.09,NW,318,1.0,2.0,55,0.00,,,0.00,LWC V2.10 B1702,2013-01-24 08:30:00,
2013-01-24 03:35:00,10.3,-1.9,30.09,NNW,331,8.0,11.0,57,0.00,,,0.00,LWC V2.10 B1702,2013-01-24 08:35:00,
2013-01-24 03:40:00,10.3,-1.5,30.09,NNW,342,4.0,9.0,58,0.00,,,0.00,LWC V2.10 B1702,2013-01-24 08:40:00,
2013-01-24 03:45:00,10.2,-1.6,30.09,East,86,0.0,7.0,58,0.00,,,0.00,LWC V2.10 B1702,2013-01-24 08:45:00,
2013-01-24 03:50:00,10.1,-2.1,30.09,NNE,18,6.0,6.0,57,0.00,,,0.00,LWC V2.10 B1702,2013-01-24 08:50:00,
2013-01-24 03:55:00,10.1,-2.1,30.08,NNW,343,4.0,9.0,57,0.00,,,0.00,LWC V2.10 B1702,2013-01-24 08:55:00,
2013-01-24 04:00:00,10.0,-2.5,30.09,NNW,327,9.0,10.0,56,0.00,,,0.00,LWC V2.10 B1702,2013-01-24 09:00:00,
2013-01-24 04:05:00,9.9,-3.0,30.09,NE,40,0.0,8.0,55,0.00,,,0.00,LWC V2.10 B1702,2013-01-24 09:05:00,
2013-01-24 04:10:00,9.8,-2.7,30.09,East,101,1.0,7.0,56,0.00,,,0.00,LWC V2.10 B1702,2013-01-24 09:10:00,
2013-01-24 04:15:00,9.7,-2.8,30.08,North,0,5.0,9.0,56,0.00,,,0.00,LWC V2.10 B1702,2013-01-24 09:15:00,
2013-01-24 04:20:00,9.6,-2.9,30.09,NNW,333,11.0,11.0,56,0.00,,,0.00,LWC V2.10 B1702,2013-01-24 09:20:00,
2013-01-24 04:25:00,9.6,-3.7,30.09,NNW,333,3.0,5.0,54,0.00,,,0.00,LWC V2.10 B1702,2013-01-24 09:25:00,
2013-01-24 04:30:00,9.6,-2.9,30.09,North,5,3.0,11.0,56,0.00,,,0.00,LWC V2.10 B1702,2013-01-24 09:30:00,
2013-01-24 04:35:00,9.5,-3.0,30.09,NW,317,7.0,10.0,56,0.00,,,0.00,LWC V2.10 B1702,2013-01-24 09:35:00,
2013-01-24 04:40:00,9.5,-3.0,30.09,NNW,334,7.0,8.0,56,0.00,,,0.00,LWC V2.10 B1702,2013-01-24 09:40:00,
2013-01-24 04:45:00,9.6,-2.9,30.09,NNW,334,4.0,7.0,56,0.00,,,0.00,LWC V2.10 B1702,2013-01-24 09:45:00,
2013-01-24 04:50:00,9.7,-2.4,30.09,WNW,288,1.0,10.0,57,0.00,,,0.00,LWC V2.10 B1702,2013-01-24 09:50:00,
2013-01-24 04:55:00,9.8,-3.1,30.09,NE,34,4.0,9.0,55,0.00,,,0.00,LWC V2.10 B1702,2013-01-24 09:55:00,
2013-01-24 05:00:00,9.9,-3.0,30.09,NNW,340,9.0,9.0,55,0.00,,,0.00,LWC V2.10 B1702,2013-01-24 10:00:00,
2013-01-24 05:05:00,9.9,-3.4,30.09,NNW,345,7.0,12.0,54,0.00,,,0.00,LWC V2.10 B1702,2013-01-24 10:05:00,
2013-01-24 05:10:00,9.9,-2.6,30.09,NNW,341,3.0,8.0,56,0.00,,,0.00,LWC V2.10 B1702,2013-01-24 10:10:00,
2013-01-24 05:15:00,9.9,-2.6,30.09,NNW,331,3.0,8.0,56,0.00,,,0.00,LWC V2.10 B1702,2013-01-24 10:15:00,
2013-01-24 05:20:00,9.8,-3.1,30.09,NNW,335,4.0,11.0,55,0.00,,,0.00,LWC V2.10 B1702,2013-01-24 10:20:00,
2013-01-24 05:25:00,9.7,-2.4,30.09,NW,318,7.0,9.0,57,0.00,,,0.00,LWC V2.10 B1702,2013-01-24 10:25:00,
2013-01-24 05:30:00,9.6,-2.5,30.09,NNW,346,4.0,8.0,57,0.00,,,0.00,LWC V2.10 B1702,2013-01-24 10:30:00,
2013-01-24 05:35:00,9.6,-2.2,30.10,NW,315,7.0,7.0,58,0.00,,,0.00,LWC V2.10 B1702,2013-01-24 10:35:00,
2013-01-24 05:40:00,9.4,-2.7,30.10,NNW,337,8.0,11.0,57,0.00,,,0.00,LWC V2.10 B1702,2013-01-24 10:40:00,
2013-01-24 05:45:00,9.3,-2.8,30.09,NNW,337,5.0,9.0,57,0.00,,,0.00,LWC V2.10 B1702,2013-01-24 10:45:00,
2013-01-24 05:50:00,9.2,-2.9,30.09,NNW,339,8.0,8.0,57,0.00,,,0.00,LWC V2.10 B1702,2013-01-24 10:50:00,
2013-01-24 05:55:00,9.2,-2.5,30.09,NW,323,3.0,9.0,58,0.00,,,0.00,LWC V2.10 B1702,2013-01-24 10:55:00,
2013-01-24 06:00:00,9.2,-2.5,30.10,NW,312,3.0,7.0,58,0.00,,,0.00,LWC V2.10 B1702,2013-01-24 11:00:00,
2013-01-24 06:05:00,9.2,-2.5,30.10,NW,310,2.0,5.0,58,0.00,,,0.00,LWC V2.10 B1702,2013-01-24 11:05:00,
2013-01-24 06:10:00,9.2,-2.2,30.10,NW,313,1.0,7.0,59,0.00,,,0.00,LWC V2.10 B1702,2013-01-24 11:10:00,
2013-01-24 06:15:00,9.2,-1.8,30.10,North,355,5.0,9.0,60,0.00,,,0.00,LWC V2.10 B1702,2013-01-24 11:15:00,
2013-01-24 06:20:00,9.1,-1.9,30.10,North,10,5.0,8.0,60,0.00,,,0.00,LWC V2.10 B1702,2013-01-24 11:20:00,
2013-01-24 06:25:00,9.1,-2.6,30.10,NNW,327,6.0,13.0,58,0.00,,,0.00,LWC V2.10 B1702,2013-01-24 11:25:00,
2013-01-24 06:30:00,9.0,-3.1,30.10,NNW,336,12.0,12.0,57,0.00,,,0.00,LWC V2.10 B1702,2013-01-24 11:30:00,
2013-01-24 06:35:00,8.8,-3.3,30.10,NNW,343,9.0,13.0,57,0.00,,,0.00,LWC V2.10 B1702,2013-01-24 11:35:00,
2013-01-24 06:40:00,8.8,-2.9,30.10,NNW,343,4.0,8.0,58,0.00,,,0.00,LWC V2.10 B1702,2013-01-24 11:40:00,
2013-01-24 06:45:00,8.8,-2.9,30.10,North,351,2.0,4.0,58,0.00,,,0.00,LWC V2.10 B1702,2013-01-24 11:45:00,
2013-01-24 06:50:00,8.7,-3.0,30.09,NNW,344,7.0,8.0,58,0.00,,,0.00,LWC V2.10 B1702,2013-01-24 11:50:00,
2013-01-24 06:55:00,8.6,-2.8,30.10,NNW,342,8.0,9.0,59,0.00,,,0.00,LWC V2.10 B1702,2013-01-24 11:55:00,
2013-01-24 07:00:00,8.5,-2.5,30.10,NE,45,5.0,5.0,60,0.00,,,0.00,LWC V2.10 B1702,2013-01-24 12:00:00,
2013-01-24 07:05:00,8.5,-2.5,30.10,North,0,3.0,8.0,60,0.00,,,0.00,LWC V2.10 B1702,2013-01-24 12:05:00,
2013-01-24 07:10:00,8.5,-1.8,30.10,NNE,15,5.0,9.0,62,0.00,,,0.00,LWC V2.10 B1702,2013-01-24 12:10:00,
2013-01-24 07:15:00,8.5,-2.1,30.10,NNW,344,2.0,7.0,61,0.00,,,0.00,LWC V2.10 B1702,2013-01-24 12:15:00,
2013-01-24 07:20:00,8.5,-2.5,30.10,NNW,343,6.0,6.0,60,0.00,,,0.00,LWC V2.10 B1702,2013-01-24 12:20:00,
2013-01-24 07:25:00,8.4,-2.2,30.10,NNW,346,8.0,9.0,61,0.00,,,0.00,LWC V2.10 B1702,2013-01-24 12:25:00,
2013-01-24 07:30:00,8.4,-2.2,30.10,NE,37,1.0,6.0,61,0.00,,,0.00,LWC V2.10 B1702,2013-01-24 12:30:00,
2013-01-24 07:35:00,8.5,-1.8,30.10,North,5,2.0,7.0,62,0.00,,,0.00,LWC V2.10 B1702,2013-01-24 12:35:00,
2013-01-24 07:40:00,8.4,-1.9,30.10,North,5,7.0,7.0,62,0.00,,,0.00,LWC V2.10 B1702,2013-01-24 12:40:00,
2013-01-24 07:45:00,8.4,-2.6,30.10,North,355,4.0,7.0,60,0.00,,,0.00,LWC V2.10 B1702,2013-01-24 12:45:00,
2013-01-24 07:50:00,8.5,-2.1,30.10,North,10,1.0,3.0,61,0.00,,,0.00,LWC V2.10 B1702,2013-01-24 12:50:00,
2013-01-24 07:55:00,8.4,-2.2,30.10,NNE,30,8.0,8.0,61,0.00,,,0.00,LWC V2.10 B1702,2013-01-24 12:55:00,
2013-01-24 08:00:00,8.5,-2.1,30.10,NW,313,4.0,6.0,61,0.00,,,0.00,LWC V2.10 B1702,2013-01-24 13:00:00,
2013-01-24 08:05:00,8.7,-1.6,30.10,NNW,333,2.0,7.0,62,0.00,,,0.00,LWC V2.10 B1702,2013-01-24 13:05:00,
2013-01-24 08:10:00,8.7,-2.0,30.10,NNE,17,1.0,8.0,61,0.00,,,0.00,LWC V2.10 B1702,2013-01-24 13:10:00,
2013-01-24 08:15:00,8.9,-1.4,30.10,ENE,68,4.0,6.0,62,0.00,,,0.00,LWC V2.10 B1702,2013-01-24 13:15:00,
2013-01-24 08:20:00,9.1,-1.2,30.10,NNW,346,10.0,10.0,62,0.00,,,0.00,LWC V2.10 B1702,2013-01-24 13:20:00,
2013-01-24 08:25:00,9.2,-1.1,30.10,NW,306,5.0,6.0,62,0.00,,,0.00,LWC V2.10 B1702,2013-01-24 13:25:00,
2013-01-24 08:30:00,9.4,-0.6,30.11,NNW,329,3.0,7.0,63,0.00,,,0.00,LWC V2.10 B1702,2013-01-24 13:30:00,
2013-01-24 08:35:00,9.5,-1.9,30.11,NNE,23,4.0,10.0,59,0.00,,,0.00,LWC V2.10 B1702,2013-01-24 13:35:00,
2013-01-24 08:40:00,9.6,-2.5,30.10,NNW,340,0.0,6.0,57,0.00,,,0.00,LWC V2.10 B1702,2013-01-24 13:40:00,
2013-01-24 08:45:00,10.0,-0.7,30.10,North,10,5.0,13.0,61,0.00,,,0.00,LWC V2.10 B1702,2013-01-24 13:45:00,
2013-01-24 08:50:00,10.1,-2.4,30.10,NNE,19,5.0,6.0,56,0.00,,,0.00,LWC V2.10 B1702,2013-01-24 13:50:00,
2013-01-24 08:55:00,10.2,-2.3,30.10,NNW,344,2.0,12.0,56,0.00,,,0.00,LWC V2.10 B1702,2013-01-24 13:55:00,
2013-01-24 09:00:00,10.3,-1.9,30.10,NNW,335,4.0,6.0,57,0.00,,,0.00,LWC V2.10 B1702,2013-01-24 14:00:00,
2013-01-24 09:05:00,10.5,-2.1,30.10,North,5,3.0,6.0,56,0.00,,,0.00,LWC V2.10 B1702,2013-01-24 14:05:00,
2013-01-24 09:10:00,10.6,-2.7,30.10,NW,308,2.0,3.0,54,0.00,,,0.00,LWC V2.10 B1702,2013-01-24 14:10:00,
2013-01-24 09:15:00,10.8,-2.2,30.10,NNW,329,0.0,4.0,55,0.00,,,0.00,LWC V2.10 B1702,2013-01-24 14:15:00,
2013-01-24 09:20:00,11.2,-1.8,30.10,NNE,13,3.0,3.0,55,0.00,,,0.00,LWC V2.10 B1702,2013-01-24 14:20:00,
2013-01-24 09:25:00,11.6,-1.0,30.10,NNW,342,2.0,5.0,56,0.00,,,0.00,LWC V2.10 B1702,2013-01-24 14:25:00,
2013-01-24 09:30:00,12.0,-1.0,30.09,NNE,23,5.0,9.0,55,0.00,,,0.00,LWC V2.10 B1702,2013-01-24 14:30:00,
2013-01-24 09:35:00,12.0,-1.8,30.09,NNE,26,0.0,5.0,53,0.00,,,0.00,LWC V2.10 B1702,2013-01-24 14:35:00,
2013-01-24 09:40:00,12.2,-2.4,30.09,NE,35,6.0,13.0,51,0.00,,,0.00,LWC V2.10 B1702,2013-01-24 14:40:00,
2013-01-24 09:45:00,12.5,-1.7,30.09,NNE,19,1.0,10.0,52,0.00,,,0.00,LWC V2.10 B1702,2013-01-24 14:45:00,
2013-01-24 09:50:00,12.6,-2.1,30.09,NNW,347,2.0,10.0,51,0.00,,,0.00,LWC V2.10 B1702,2013-01-24 14:50:00,
2013-01-24 09:55:00,12.7,-2.4,30.09,NNW,333,7.0,9.0,50,0.00,,,0.00,LWC V2.10 B1702,2013-01-24 14:55:00,
2013-01-24 10:00:00,13.0,-1.7,30.09,North,355,6.0,8.0,51,0.00,,,0.00,LWC V2.10 B1702,2013-01-24 15:00:00,
2013-01-24 10:05:00,13.4,-1.7,30.09,NNE,14,2.0,8.0,50,0.00,,,0.00,LWC V2.10 B1702,2013-01-24 15:05:00,
2013-01-24 10:10:00,13.8,-0.9,30.09,North,5,6.0,9.0,51,0.00,,,0.00,LWC V2.10 B1702,2013-01-24 15:10:00,
2013-01-24 10:15:00,14.1,-1.9,30.09,NW,304,3.0,4.0,48,0.00,,,0.00,LWC V2.10 B1702,2013-01-24 15:15:00,
2013-01-24 10:20:00,14.1,-1.5,30.09,NW,321,1.0,9.0,49,0.00,,,0.00,LWC V2.10 B1702,2013-01-24 15:20:00,
2013-01-24 10:25:00,14.3,-1.3,30.09,NNW,338,5.0,9.0,49,0.00,,,0.00,LWC V2.10 B1702,2013-01-24 15:25:00,
2013-01-24 10:30:00,14.4,-1.2,30.09,North,5,2.0,6.0,49,0.00,,,0.00,LWC V2.10 B1702,2013-01-24 15:30:00,
2013-01-24 10:35:00,14.6,-1.0,30.09,North,355,4.0,8.0,49,0.00,,,0.00,LWC V2.10 B1702,2013-01-24 15:35:00,
2013-01-24 10:40:00,14.8,-0.9,30.08,NNE,32,1.0,4.0,49,0.00,,,0.00,LWC V2.10 B1702,2013-01-24 15:40:00,
2013-01-24 10:45:00,15.2,-0.9,30.08,NE,42,0.0,9.0,48,0.00,,,0.00,LWC V2.10 B1702,2013-01-24 15:45:00,
2013-01-24 10:50:00,15.3,-1.7,30.08,NNE,28,7.0,7.0,46,0.00,,,0.00,LWC V2.10 B1702,2013-01-24 15:50:00,
2013-01-24 10:55:00,15.4,-1.2,30.08,WNW,290,3.0,7.0,47,0.00,,,0.00,LWC V2.10 B1702,2013-01-24 15:55:00,
2013-01-24 11:00:00,15.7,-0.9,30.08,NNW,338,4.0,6.0,47,0.00,,,0.00,LWC V2.10 B1702,2013-01-24 16:00:00,
2013-01-24 11:05:00,16.1,-1.0,30.08,NE,53,5.0,8.0,46,0.00,,,0.00,LWC V2.10 B1702,2013-01-24 16:05:00,
2013-01-24 11:10:00,16.4,-1.2,30.07,NW,304,4.0,8.0,45,0.00,,,0.00,LWC V2.10 B1702,2013-01-24 16:10:00,
2013-01-24 11:15:00,16.8,-0.8,30.07,NE,36,5.0,10.0,45,0.00,,,0.00,LWC V2.10 B1702,2013-01-24 16:15:00,
2013-01-24 11:20:00,17.3,-0.4,30.07,WNW,284,5.0,5.0,45,0.00,,,0.00,LWC V2.10 B1702,2013-01-24 16:20:00,
2013-01-24 11:25:00,17.6,-0.1,30.07,North,355,3.0,6.0,45,0.00,,,0.00,LWC V2.10 B1702,2013-01-24 16:25:00,
2013-01-24 11:30:00,18.0,0.8,30.06,NE,51,4.0,8.0,46,0.00,,,0.00,LWC V2.10 B1702,2013-01-24 16:30:00,
2013-01-24 11:35:00,18.1,0.4,30.06,North,0,8.0,8.0,45,0.00,,,0.00,LWC V2.10 B1702,2013-01-24 16:35:00,
2013-01-24 11:40:00,18.2,0.0,30.06,NNE,15,5.0,11.0,44,0.00,,,0.00,LWC V2.10 B1702,2013-01-24 16:40:00,
2013-01-24 11:45:00,18.5,0.3,30.06,North,0,2.0,4.0,44,0.00,,,0.00,LWC V2.10 B1702,2013-01-24 16:45:00,
2013-01-24 11:50:00,18.7,0.9,30.06,NW,323,4.0,8.0,45,0.00,,,0.00,LWC V2.10 B1702,2013-01-24 16:50:00,
2013-01-24 11:55:00,18.8,1.0,30.06,NNW,346,2.0,8.0,45,0.00,,,0.00,LWC V2.10 B1702,2013-01-24 16:55:00,
2013-01-24 12:00:00,18.8,0.5,30.06,North,5,3.0,7.0,44,0.00,,,0.00,LWC V2.10 B1702,2013-01-24 17:00:00,
2013-01-24 12:05:00,18.8,1.0,30.06,NNW,331,5.0,10.0,45,0.00,,,0.00,LWC V2.10 B1702,2013-01-24 17:05:00,
2013-01-24 12:10:00,19.1,0.8,30.05,NNW,333,7.0,7.0,44,0.00,,,0.00,LWC V2.10 B1702,2013-01-24 17:10:00,
2013-01-24 12:15:00,19.0,0.7,30.05,NW,316,8.0,11.0,44,0.00,,,0.00,LWC V2.10 B1702,2013-01-24 17:15:00,
2013-01-24 12:20:00,19.0,0.7,30.05,NNW,340,2.0,6.0,44,0.00,,,0.00,LWC V2.10 B1702,2013-01-24 17:20:00,
2013-01-24 12:25:00,19.4,2.0,30.05,North,355,3.0,7.0,46,0.00,,,0.00,LWC V2.10 B1702,2013-01-24 17:25:00,
2013-01-24 12:30:00,19.8,1.5,30.05,NNE,25,3.0,9.0,44,0.00,,,0.00,LWC V2.10 B1702,2013-01-24 17:30:00,
2013-01-24 12:35:00,20.1,2.2,30.04,NNW,348,9.0,11.0,45,0.00,,,0.00,LWC V2.10 B1702,2013-01-24 17:35:00,
2013-01-24 12:40:00,20.0,1.6,30.04,NNW,348,2.0,2.0,44,0.00,,,0.00,LWC V2.10 B1702,2013-01-24 17:40:00,
2013-01-24 12:45:00,20.1,1.7,30.04,NNW,336,5.0,8.0,44,0.00,,,0.00,LWC V2.10 B1702,2013-01-24 17:45:00,
2013-01-24 12:50:00,20.0,1.6,30.04,NNW,346,8.0,8.0,44,0.00,,,0.00,LWC V2.10 B1702,2013-01-24 17:50:00,
2013-01-24 12:55:00,19.9,1.5,30.04,NNW,327,3.0,11.0,44,0.00,,,0.00,LWC V2.10 B1702,2013-01-24 17:55:00,
2013-01-24 13:00:00,20.3,1.4,30.04,NW,312,2.0,8.0,43,0.00,,,0.00,LWC V2.10 B1702,2013-01-24 18:00:00,
2013-01-24 13:05:00,20.4,2.0,30.04,NW,322,7.0,7.0,44,0.00,,,0.00,LWC V2.10 B1702,2013-01-24 18:05:00,
2013-01-24 13:10:00,20.3,0.9,30.04,NNW,341,6.0,10.0,42,0.00,,,0.00,LWC V2.10 B1702,2013-01-24 18:10:00,
2013-01-24 13:15:00,20.3,1.9,30.04,NNW,341,3.0,9.0,44,0.00,,,0.00,LWC V2.10 B1702,2013-01-24 18:15:00,
2013-01-24 13:20:00,20.6,2.2,30.03,NNW,342,2.0,8.0,44,0.00,,,0.00,LWC V2.10 B1702,2013-01-24 18:20:00,
2013-01-24 13:25:00,20.6,1.7,30.03,North,5,4.0,9.0,43,0.00,,,0.00,LWC V2.10 B1702,2013-01-24 18:25:00,
2013-01-24 13:30:00,20.7,1.3,30.03,NW,317,9.0,13.0,42,0.00,,,0.00,LWC V2.10 B1702,2013-01-24 18:30:00,
2013-01-24 13:35:00,20.7,0.8,30.03,NNW,346,7.0,15.0,41,0.00,,,0.00,LWC V2.10 B1702,2013-01-24 18:35:00,
2013-01-24 13:40:00,20.9,2.0,30.03,NNW,344,2.0,11.0,43,0.00,,,0.00,LWC V2.10 B1702,2013-01-24 18:40:00,
2013-01-24 13:45:00,21.3,1.8,30.03,NNE,16,12.0,16.0,42,0.00,,,0.00,LWC V2.10 B1702,2013-01-24 18:45:00,
2013-01-24 13:50:00,21.5,2.5,30.04,North,5,6.0,10.0,43,0.00,,,0.00,LWC V2.10 B1702,2013-01-24 18:50:00,
2013-01-24 13:55:00,21.5,1.5,30.03,North,355,7.0,9.0,41,0.00,,,0.00,LWC V2.10 B1702,2013-01-24 18:55:00,
2013-01-24 14:00:00,21.8,2.3,30.04,NW,324,6.0,6.0,42,0.00,,,0.00,LWC V2.10 B1702,2013-01-24 19:00:00,
2013-01-24 14:05:00,21.8,1.8,30.04,North,350,11.0,11.0,41,0.00,,,0.00,LWC V2.10 B1702,2013-01-24 19:05:00,
2013-01-24 14:10:00,21.5,0.4,30.04,NNW,346,9.0,11.0,39,0.00,,,0.00,LWC V2.10 B1702,2013-01-24 19:10:00,
2013-01-24 14:15:00,21.7,1.7,30.04,NNW,338,11.0,11.0,41,0.00,,,0.00,LWC V2.10 B1702,2013-01-24 19:15:00,
2013-01-24 14:20:00,21.8,1.8,30.05,NW,312,6.0,11.0,41,0.00,,,0.00,LWC V2.10 B1702,2013-01-24 19:20:00,
2013-01-24 14:25:00,21.7,0.6,30.05,NW,325,4.0,8.0,39,0.00,,,0.00,LWC V2.10 B1702,2013-01-24 19:25:00,
2013-01-24 14:30:00,21.8,2.3,30.05,North,355,7.0,7.0,42,0.00,,,0.00,LWC V2.10 B1702,2013-01-24 19:30:00,
2013-01-24 14:35:00,21.4,0.3,30.05,West,270,7.0,14.0,39,0.00,,,0.00,LWC V2.10 B1702,2013-01-24 19:35:00,
2013-01-24 14:40:00,21.2,1.2,30.04,NE,38,10.0,10.0,41,0.00,,,0.00,LWC V2.10 B1702,2013-01-24 19:40:00,
2013-01-24 14:45:00,21.3,1.8,30.05,North,355,4.0,5.0,42,0.00,,,0.00,LWC V2.10 B1702,2013-01-24 19:45:00,
2013-01-24 14:50:00,21.3,1.8,30.05,NW,307,5.0,9.0,42,0.00,,,0.00,LWC V2.10 B1702,2013-01-24 19:50:00,
2013-01-24 14:55:00,21.3,1.3,30.05,WNW,300,6.0,10.0,41,0.00,,,0.00,LWC V2.10 B1702,2013-01-24 19:55:00,
2013-01-24 15:00:00,21.3,0.8,30.05,NNE,17,9.0,9.0,40,0.00,,,0.00,LWC V2.10 B1702,2013-01-24 20:00:00,
2013-01-24 15:05:00,21.1,0.6,30.05,WNW,284,3.0,8.0,40,0.00,,,0.00,LWC V2.10 B1702,2013-01-24 20:05:00,
2013-01-24 15:10:00,21.1,0.6,30.05,NNW,329,10.0,13.0,40,0.00,,,0.00,LWC V2.10 B1702,2013-01-24 20:10:00,
2013-01-24 15:15:00,21.1,0.1,30.05,North,5,1.0,13.0,39,0.00,,,0.00,LWC V2.10 B1702,2013-01-24 20:15:00,
2013-01-24 15:20:00,21.3,1.8,30.05,WNW,300,3.0,10.0,42,0.00,,,0.00,LWC V2.10 B1702,2013-01-24 20:20:00,
2013-01-24 15:25:00,21.3,0.2,30.05,NW,323,7.0,11.0,39,0.00,,,0.00,LWC V2.10 B1702,2013-01-24 20:25:00,
2013-01-24 15:30:00,21.2,-0.4,30.05,North,351,4.0,7.0,38,0.00,,,0.00,LWC V2.10 B1702,2013-01-24 20:30:00,
2013-01-24 15:35:00,21.2,1.2,30.05,NNW,337,8.0,10.0,41,0.00,,,0.00,LWC V2.10 B1702,2013-01-24 20:35:00,
2013-01-24 15:40:00,21.2,0.2,30.05,NW,308,2.0,7.0,39,0.00,,,0.00,LWC V2.10 B1702,2013-01-24 20:40:00,
2013-01-24 15:45:00,21.2,0.7,30.05,NNW,343,11.0,11.0,40,0.00,,,0.00,LWC V2.10 B1702,2013-01-24 20:45:00,
2013-01-24 15:50:00,21.1,-0.5,30.06,NW,319,2.0,12.0,38,0.00,,,0.00,LWC V2.10 B1702,2013-01-24 20:50:00,
2013-01-24 15:53:00,21.0,-1.1,30.06,North,9,2.0,7.0,37,0.00,,,0.00,LWC V2.10 B1702,2013-01-24 20:53:00,
2013-01-24 15:58:00,20.9,0.9,30.06,North,355,3.0,5.0,41,0.00,,,0.00,LWC V2.10 B1702,2013-01-24 20:58:00,
2013-01-24 16:03:00,21.0,0.5,30.06,NW,315,2.0,13.0,40,0.00,,,0.00,LWC V2.10 B1702,2013-01-24 21:03:00,
2013-01-24 16:08:00,21.0,1.0,30.06,West,279,6.0,12.0,41,0.00,,,0.00,LWC V2.10 B1702,2013-01-24 21:08:00,
2013-01-24 16:13:00,21.0,1.0,30.07,NW,315,7.0,10.0,41,0.00,,,0.00,LWC V2.10 B1702,2013-01-24 21:13:00,
2013-01-24 16:18:00,21.0,0.0,30.07,NNW,338,6.0,11.0,39,0.00,,,0.00,LWC V2.10 B1702,2013-01-24 21:18:00,
2013-01-24 16:23:00,20.9,-0.7,30.07,NNW,347,7.0,9.0,38,0.00,,,0.00,LWC V2.10 B1702,2013-01-24 21:23:00,
2013-01-24 16:28:00,20.8,0.3,30.07,NW,318,4.0,9.0,40,0.00,,,0.00,LWC V2.10 B1702,2013-01-24 21:28:00,
2013-01-24 16:33:00,20.7,-0.3,30.08,NW,307,9.0,9.0,39,0.00,,,0.00,LWC V2.10 B1702,2013-01-24 21:33:00,
2013-01-24 16:38:00,20.6,-0.4,30.08,NNW,335,8.0,10.0,39,0.00,,,0.00,LWC V2.10 B1702,2013-01-24 21:38:00,
2013-01-24 16:43:00,20.5,0.6,30.08,NW,317,6.0,14.0,41,0.00,,,0.00,LWC V2.10 B1702,2013-01-24 21:43:00,
2013-01-24 16:48:00,20.6,0.1,30.08,West,271,10.0,12.0,40,0.00,,,0.00,LWC V2.10 B1702,2013-01-24 21:48:00,
2013-01-24 16:53:00,20.6,0.1,30.08,West,278,3.0,12.0,40,0.00,,,0.00,LWC V2.10 B1702,2013-01-24 21:53:00,
2013-01-24 16:58:00,20.6,0.7,30.08,WNW,300,5.0,9.0,41,0.00,,,0.00,LWC V2.10 B1702,2013-01-24 21:58:00,
2013-01-24 17:03:00,20.5,1.6,30.08,NNW,347,5.0,7.0,43,0.00,,,0.00,LWC V2.10 B1702,2013-01-24 22:03:00,
2013-01-24 17:08:00,20.4,-0.6,30.09,NW,310,4.0,16.0,39,0.00,,,0.00,LWC V2.10 B1702,2013-01-24 22:08:00,
2013-01-24 17:13:00,20.3,0.4,30.09,NW,324,5.0,8.0,41,0.00,,,0.00,LWC V2.10 B1702,2013-01-24 22:13:00,
2013-01-24 17:18:00,20.3,-0.1,30.10,NW,324,3.0,10.0,40,0.00,,,0.00,LWC V2.10 B1702,2013-01-24 22:18:00,
2013-01-24 17:23:00,20.3,0.4,30.10,North,355,2.0,10.0,41,0.00,,,0.00,LWC V2.10 B1702,2013-01-24 22:23:00,
2013-01-24 17:28:00,20.2,-0.2,30.10,NNW,345,7.0,12.0,40,0.00,,,0.00,LWC V2.10 B1702,2013-01-24 22:28:00,
2013-01-24 17:33:00,20.1,-0.8,30.10,NNW,331,1.0,9.0,39,0.00,,,0.00,LWC V2.10 B1702,2013-01-24 22:33:00,
2013-01-24 17:38:00,20.0,0.1,30.11,NNW,331,10.0,10.0,41,0.00,,,0.00,LWC V2.10 B1702,2013-01-24 22:38:00,
2013-01-24 17:43:00,20.0,0.1,30.11,North,0,5.0,9.0,41,0.00,,,0.00,LWC V2.10 B1702,2013-01-24 22:43:00,
2013-01-24 17:48:00,20.0,0.1,30.11,NNW,333,4.0,9.0,41,0.00,,,0.00,LWC V2.10 B1702,2013-01-24 22:48:00,
2013-01-24 17:53:00,19.9,0.0,30.12,NW,308,3.0,10.0,41,0.00,,,0.00,LWC V2.10 B1702,2013-01-24 22:53:00,
2013-01-24 17:58:00,19.8,1.0,30.11,NNW,338,6.0,13.0,43,0.00,,,0.00,LWC V2.10 B1702,2013-01-24 22:58:00,
2013-01-24 18:03:00,19.8,1.0,30.12,NNW,346,8.0,14.0,43,0.00,,,0.00,LWC V2.10 B1702,2013-01-24 23:03:00,
2013-01-24 18:08:00,19.7,-0.1,30.12,NW,325,7.0,7.0,41,0.00,,,0.00,LWC V2.10 B1702,2013-01-24 23:08:00,
2013-01-24 18:13:00,19.7,-0.7,30.12,NW,305,5.0,10.0,40,0.00,,,0.00,LWC V2.10 B1702,2013-01-24 23:13:00,
2013-01-24 18:18:00,19.7,0.4,30.13,NW,306,8.0,8.0,42,0.00,,,0.00,LWC V2.10 B1702,2013-01-24 23:18:00,
2013-01-24 18:23:00,19.7,-0.1,30.13,NNW,345,8.0,9.0,41,0.00,,,0.00,LWC V2.10 B1702,2013-01-24 23:23:00,
2013-01-24 18:28:00,19.6,-0.2,30.13,NW,325,2.0,16.0,41,0.00,,,0.00,LWC V2.10 B1702,2013-01-24 23:28:00,
2013-01-24 18:33:00,19.5,0.2,30.13,NW,305,9.0,15.0,42,0.00,,,0.00,LWC V2.10 B1702,2013-01-24 23:33:00,
2013-01-24 18:38:00,19.5,-0.3,30.13,North,10,4.0,10.0,41,0.00,,,0.00,LWC V2.10 B1702,2013-01-24 23:38:00,
2013-01-24 18:43:00,19.5,0.2,30.13,NNE,18,3.0,8.0,42,0.00,,,0.00,LWC V2.10 B1702,2013-01-24 23:43:00,
2013-01-24 18:48:00,19.5,0.7,30.14,NW,306,2.0,8.0,43,0.00,,,0.00,LWC V2.10 B1702,2013-01-24 23:48:00,
2013-01-24 18:53:00,19.5,0.7,30.14,NNW,340,8.0,8.0,43,0.00,,,0.00,LWC V2.10 B1702,2013-01-24 23:53:00,
2013-01-24 18:58:00,19.4,0.1,30.14,West,276,3.0,6.0,42,0.00,,,0.00,LWC V2.10 B1702,2013-01-24 23:58:00,
2013-01-24 19:03:00,19.3,0.0,30.14,NW,324,6.0,8.0,42,0.00,,,0.00,LWC V2.10 B1702,2013-01-25 00:03:00,
2013-01-24 19:08:00,19.3,0.5,30.14,NNW,344,4.0,8.0,43,0.00,,,0.00,LWC V2.10 B1702,2013-01-25 00:08:00,
2013-01-24 19:13:00,19.3,0.5,30.13,NW,325,10.0,10.0,43,0.00,,,0.00,LWC V2.10 B1702,2013-01-25 00:13:00,
2013-01-24 19:18:00,19.3,1.5,30.13,NW,308,11.0,12.0,45,0.00,,,0.00,LWC V2.10 B1702,2013-01-25 00:18:00,
2013-01-24 19:23:00,19.3,0.5,30.13,North,355,10.0,14.0,43,0.00,,,0.00,LWC V2.10 B1702,2013-01-25 00:23:00,
2013-01-24 19:28:00,19.2,0.4,30.13,NW,306,11.0,11.0,43,0.00,,,0.00,LWC V2.10 B1702,2013-01-25 00:28:00,
2013-01-24 19:33:00,19.2,0.4,30.14,SW,230,6.0,12.0,43,0.00,,,0.00,LWC V2.10 B1702,2013-01-25 00:33:00,
2013-01-24 19:38:00,19.2,0.9,30.14,NW,323,6.0,11.0,44,0.00,,,0.00,LWC V2.10 B1702,2013-01-25 00:38:00,
2013-01-24 19:43:00,19.2,0.9,30.14,NW,313,6.0,9.0,44,0.00,,,0.00,LWC V2.10 B1702,2013-01-25 00:43:00,
2013-01-24 19:48:00,19.1,0.8,30.14,WNW,302,6.0,11.0,44,0.00,,,0.00,LWC V2.10 B1702,2013-01-25 00:48:00,
2013-01-24 19:53:00,19.1,1.3,30.15,WNW,299,7.0,13.0,45,0.00,,,0.00,LWC V2.10 B1702,2013-01-25 00:53:00,
2013-01-24 19:58:00,18.9,1.1,30.14,NW,323,7.0,10.0,45,0.00,,,0.00,LWC V2.10 B1702,2013-01-25 00:58:00,
2013-01-24 20:03:00,18.8,1.5,30.15,NW,306,10.0,11.0,46,0.00,,,0.00,LWC V2.10 B1702,2013-01-25 01:03:00,
2013-01-24 20:08:00,18.7,0.0,30.15,WNW,291,9.0,14.0,43,0.00,,,0.00,LWC V2.10 B1702,2013-01-25 01:08:00,
2013-01-24 20:13:00,18.6,0.4,30.15,WNW,293,13.0,13.0,44,0.00,,,0.00,LWC V2.10 B1702,2013-01-25 01:13:00,
2013-01-24 20:18:00,18.5,0.3,30.15,NNW,344,9.0,9.0,44,0.00,,,0.00,LWC V2.10 B1702,2013-01-25 01:18:00,
2013-01-24 20:24:00,18.5,0.7,30.15,NNW,328,9.0,12.0,45,0.00,,,0.00,LWC V2.10 B1702,2013-01-25 01:24:00,
2013-01-24 20:29:00,18.5,0.7,30.15,NNW,327,9.0,12.0,45,0.00,,,0.00,LWC V2.10 B1702,2013-01-25 01:29:00,
2013-01-24 20:34:00,18.4,0.6,30.15,NW,304,9.0,9.0,45,0.00,,,0.00,LWC V2.10 B1702,2013-01-25 01:34:00,
2013-01-24 20:39:00,18.2,-1.0,30.16,NW,316,7.0,9.0,42,0.00,,,0.00,LWC V2.10 B1702,2013-01-25 01:39:00,
2013-01-24 20:44:00,18.1,-1.1,30.16,North,355,9.0,11.0,42,0.00,,,0.00,LWC V2.10 B1702,2013-01-25 01:44:00,
2013-01-24 20:49:00,17.9,-0.8,30.16,NW,309,9.0,9.0,43,0.00,,,0.00,LWC V2.10 B1702,2013-01-25 01:49:00,
2013-01-24 20:54:00,17.8,-0.4,30.16,NW,313,8.0,13.0,44,0.00,,,0.00,LWC V2.10 B1702,2013-01-25 01:54:00,
2013-01-24 20:59:00,17.6,-0.6,30.16,West,271,14.0,14.0,44,0.00,,,0.00,LWC V2.10 B1702,2013-01-25 01:59:00,
2013-01-24 21:04:00,17.5,-0.6,30.16,NNE,17,3.0,15.0,44,0.00,,,0.00,LWC V2.10 B1702,2013-01-25 02:04:00,
2013-01-24 21:09:00,17.5,-0.2,30.16,NNW,337,8.0,15.0,45,0.00,,,0.00,LWC V2.10 B1702,2013-01-25 02:09:00,
2013-01-24 21:14:00,17.3,-0.8,30.16,WNW,294,7.0,12.0,44,0.00,,,0.00,LWC V2.10 B1702,2013-01-25 02:14:00,
2013-01-24 21:19:00,17.2,-0.4,30.16,WNW,287,4.0,10.0,45,0.00,,,0.00,LWC V2.10 B1702,2013-01-25 02:19:00,
2013-01-24 21:24:00,17.1,-0.1,30.17,North,355,4.0,12.0,46,0.00,,,0.00,LWC V2.10 B1702,2013-01-25 02:24:00,
2013-01-24 21:29:00,17.0,-0.6,30.17,WNW,283,5.0,14.0,45,0.00,,,0.00,LWC V2.10 B1702,2013-01-25 02:29:00,
2013-01-24 21:34:00,17.0,-0.2,30.17,WNW,288,5.0,13.0,46,0.00,,,0.00,LWC V2.10 B1702,2013-01-25 02:34:00,
2013-01-24 21:39:00,16.9,-1.2,30.17,NNW,343,10.0,13.0,44,0.00,,,0.00,LWC V2.10 B1702,2013-01-25 02:39:00,
2013-01-24 21:44:00,16.8,-0.4,30.17,NW,316,3.0,15.0,46,0.00,,,0.00,LWC V2.10 B1702,2013-01-25 02:44:00,
2013-01-24 21:49:00,16.7,-1.4,30.17,WNW,290,5.0,6.0,44,0.00,,,0.00,LWC V2.10 B1702,2013-01-25 02:49:00,
2013-01-24 21:54:00,16.7,-0.9,30.17,NW,306,8.0,10.0,45,0.00,,,0.00,LWC V2.10 B1702,2013-01-25 02:54:00,
2013-01-24 21:59:00,16.5,-1.6,30.18,NW,304,5.0,11.0,44,0.00,,,0.00,LWC V2.10 B1702,2013-01-25 02:59:00,
2013-01-24 22:04:00,16.4,-1.2,30.18,NNW,327,10.0,12.0,45,0.00,,,0.00,LWC V2.10 B1702,2013-01-25 03:04:00,
2013-01-24 22:09:00,16.3,-1.3,30.18,NNW,342,8.0,12.0,45,0.00,,,0.00,LWC V2.10 B1702,2013-01-25 03:09:00,
2013-01-24 22:14:00,16.3,-1.3,30.17,NNW,333,3.0,10.0,45,0.00,,,0.00,LWC V2.10 B1702,2013-01-25 03:14:00,
2013-01-24 22:19:00,16.2,-0.9,30.18,NW,318,8.0,17.0,46,0.00,,,0.00,LWC V2.10 B1702,2013-01-25 03:19:00,
2013-01-24 22:24:00,16.1,-1.5,30.18,NNW,341,6.0,9.0,45,0.00,,,0.00,LWC V2.10 B1702,2013-01-25 03:24:00,
2013-01-24 22:29:00,16.1,-0.5,30.18,WNW,299,6.0,11.0,47,0.00,,,0.00,LWC V2.10 B1702,2013-01-25 03:29:00,
2013-01-24 22:34:00,16.0,-1.1,30.18,NW,305,5.0,12.0,46,0.00,,,0.00,LWC V2.10 B1702,2013-01-25 03:34:00,
2013-01-24 22:39:00,15.9,-1.6,30.18,NW,306,5.0,12.0,45,0.00,,,0.00,LWC V2.10 B1702,2013-01-25 03:39:00,
2013-01-24 22:44:00,15.8,-1.3,30.18,West,281,5.0,14.0,46,0.00,,,0.00,LWC V2.10 B1702,2013-01-25 03:44:00,
2013-01-24 22:49:00,15.7,-1.4,30.19,WNW,299,4.0,14.0,46,0.00,,,0.00,LWC V2.10 B1702,2013-01-25 03:49:00,
2013-01-24 22:54:00,15.7,-0.9,30.18,NNW,340,6.0,10.0,47,0.00,,,0.00,LWC V2.10 B1702,2013-01-25 03:54:00,
2013-01-24 22:59:00,15.6,-1.5,30.19,NNW,344,5.0,10.0,46,0.00,,,0.00,LWC V2.10 B1702,2013-01-25 03:59:00,
2013-01-24 23:04:00,15.5,-1.1,30.19,NNW,348,5.0,9.0,47,0.00,,,0.00,LWC V2.10 B1702,2013-01-25 04:04:00,
2013-01-24 23:09:00,15.5,-1.1,30.19,NW,311,5.0,12.0,47,0.00,,,0.00,LWC V2.10 B1702,2013-01-25 04:09:00,
2013-01-24 23:14:00,15.5,-0.6,30.19,NW,325,7.0,9.0,48,0.00,,,0.00,LWC V2.10 B1702,2013-01-25 04:14:00,
2013-01-24 23:19:00,15.4,-0.3,30.19,NW,322,8.0,12.0,49,0.00,,,0.00,LWC V2.10 B1702,2013-01-25 04:19:00,
2013-01-24 23:24:00,15.4,-0.3,30.19,NW,325,6.0,8.0,49,0.00,,,0.00,LWC V2.10 B1702,2013-01-25 04:24:00,
2013-01-24 23:29:00,15.4,-0.7,30.20,West,270,3.0,9.0,48,0.00,,,0.00,LWC V2.10 B1702,2013-01-25 04:29:00,
2013-01-24 23:34:00,15.3,-0.8,30.20,NW,323,5.0,14.0,48,0.00,,,0.00,LWC V2.10 B1702,2013-01-25 04:34:00,
2013-01-24 23:39:00,15.3,-0.8,30.20,NNW,327,7.0,7.0,48,0.00,,,0.00,LWC V2.10 B1702,2013-01-25 04:39:00,
2013-01-24 23:44:00,15.2,-0.9,30.20,NW,315,7.0,13.0,48,0.00,,,0.00,LWC V2.10 B1702,2013-01-25 04:44:00,
2013-01-24 23:49:00,15.1,-1.0,30.20,West,281,8.0,11.0,48,0.00,,,0.00,LWC V2.10 B1702,2013-01-25 04:49:00,
2013-01-24 23:54:00,15.0,-0.7,30.21,WSW,258,4.0,8.0,49,0.00,,,0.00,LWC V2.10 B1702,2013-01-25 04:54:00,
2013-01-24 23:59:00,14.9,-0.8,30.21,NNW,327,0.0,5.0,49,0.00,,,0.00,LWC V2.10 B1702,2013-01-25 04:59:00,